Location: ?
(35.4064°N, 139.3593°E)
Time: 03:46:11
(UTC+00:00)

ATLAS 2AS CENTAUR R/B - Pass Details

Date: 18 April 2024
Orbit: 1016 x 1195 km, 63.7° (Epoch: 23 May)

Event Time Altitude Azimuth Distance (km) Brightness Sun altitude
Exits shadow 16:11:29 26° 96° (E) 2,106 4.3 -38.8°
Drops below altitude 10° 16:16:21 10° 55° (NE) 3,048 5.7 -38.3°
Sets 16:19:26 0° 44° (NE) 3,985 6.6 -38.0°
